map of IKA home
IKA - Airport
Location
City:  Tehran, Tehran, Iran
Near (Alt.):Teheran
Name:Imam Khomeini International Airport
Old (Alt.):Ahmadabad
ICAO:OIIE
IATA:IKA

Details
Type:Airport (Aerodrome, Airfield)
Use:International (customs port of entry)
Latitude:3524'58"N (35.416111)
Longitude:5109'08"E (51.152222)
Datum:WGS 1984
Elevation:3305 ft (1007 m)
Variation:4.67E (WMM2015 magnetic declination)
0.06 annual change
Runways:2
Longest:13940 × 148 ft (4249 × 45 m), paved

Time
Time Zone:UTC+3:30 (DST+4:30)
Local Time:

Weather
METAR:OIIE 142230Z 26006KT CAVOK M00/M09 Q1019
TAF:OIIE 140530Z 1406/1512 13004MPS 8000 NSC
BECMG 1510/1412 FEW035 BKN100

Related Locations
Nearby:
Farthest:GMR: 11508 mi / 18521 km
Mangareva [Totegegie], Gambier Islands, PF

Find:

   beyond  
but within

Other Information
Maps:
NOTAMs:
Links:
Sources:

  
flag of Iran   

Sectional Chart

Flight Planning
at skyvector.com

Satellite Image

Google Maps Satellite view

 

Copyright © 2004-2017 Karl L. Swartz. All rights reserved.
The Great Circle Mapper name and logo are trademarks of the Great Circle Mapper.
All other trademarks mentioned herein belong to their respective owners.
Please see credits for attibutions and further copyright information.

  Follow gcmap on Facebook Follow gcmap on Twitter Follow gcmap on Google+ GCmap on LinkedIn

hCard Microformat

Geo Microformat